SCP
-0 -0 -0 0 0 0 0 0 0 0 0 0 0 0 0 0 0 0 0 0 0 0 0 0 0 0 0 0 0 0 0 0 0 0 -0 -0 -0 0 0 0 0 0 0
-0 -0 -0 0 0 0 0 0 0 0 0 0 0 0 0 0 0 0 0 0 0 0 0 0 0 0 0 0 0 0 0 0 0 0 0 -0 -0 0 0 0 0 0 0
-0 -0 -0 0 0 0 0 0 0 0 0 0 0 0 0 0 0 0 0 0 0 0 0 0 0 0 0 0 0 0 0 0 0 0 0 0 0 0 0 0 0 0 0
-0 0 0 0 0 0 0 0 0 0 0 0 0 0 0 0 0 0 0 0 0 0 0 0 0 0 0 0 0 0 0 0 0 0 0 0 0 0 0 0 0 0 0
0 0 0 0 0 0 0 0 0 0 0 0 0 0 0 0 0 0 0 0 0 0 0 0 0 0 0 0 0 0 0 0 0 0 0 0 0 0 0 0 0 0 0
0 0 0 0 0 0 0 0 0 0 0 0 0 0 0 0 0 0 0 0 0 0 0 0 0 0 0 0 0 0 0 0 0 0 0 0 0 0 0 0 0 0 0
0 0 0 0 0 0 0 0 0 0 0 0 0 0 0 0 0 0 0 0 0 0 0 0 0 0 0 0 0 0 0 0 0 0 0 0 0 0 0 0 0 0 0
0 0 0 0 0 0 0 0 0 0 0 0 0 0 0 0 0 0 0 0 0 0 0 0 0 0 0 0 0 0 0 0 0 0 0 0 0 0 0 0 0 0 0
0 0 0 0 0 0 0 0 0 0 0 0 0 0 0 0 0 0 0 0 0 0 0 0 0 0 0 0 0 0 0 0 0 0 0 0 0 0 0 0 0 0 0
0 0 0 0 0 0 0 0 0 0 0 0 0 0 0 0 0 0 0 0 0 0 0 0 0 0 0 0 0 0 0 0 0 0 0 0 0 0 0 0 0 0 0
0 0 0 0 0 0 0 0 0 0 0 0 0 0 0 0 0 0 0 0 0 0 0 0 0 0 0 0 0 0 0 0 0 0 0 0 0 0 0 0 0 0 0
0 0 0 0 0 0 0 0 0 0 0 0 0 0 0 0 0 0 0 0 0 0 0 0 0 0 0 0 0 0 0 0 0 0 0 0 0 0 0 0 -0 0 0
0 0 0 0 0 0 0 0 0 0 0 0 0 0 0 0 0 0 0 0 0 0 0 0 0 0 0 0 0 0 0 0 0 0 0 0 0 0 0 0 0 0 0
0 0 0 0 0 0 0 0 0 0 0 0 0 0 0 0 0 0 0 0 0 0 0 0 0 0 0 0 0 0 0 0 0 0 0 0 0 0 0 0 0 0 0
0 0 0 0 0 0 0 0 0 0 0 0 0 0 0 0 0 0 0 0 0 0 0 0 0 0 0 0 0 0 0 0 0 0 0 0 0 0 0 0 0 0 0
0 0 0 0 0 0 0 0 0 0 0 0 0 0 0 0 0 0 0 0 0 0 0 0 0 0 0 0 0 0 0 0 0 0 0 0 0 0 0 0 0 0 0
0 0 0 0 0 0 0 0 0 0 0 0 0 0 0 0 0 0 0 0 0 0 0 0 0 0 0 0 0 0 0 0 0 0 0 0 0 0 0 0 0 0 0
0 0 0 0 0 0 0 0 0 0 0 0 0 0 0 0 0 0 0 0 0 0 0 0 0 0 0 0 0 0 0 0 0 0 0 0 0 0 0 0 0 0 0
0 0 0 0 0 0 0 0 0 0 0 0 0 0 0 0 0 0 0 0 0 0 0 0 0 0 0 0 0 0 0 0 0 0 0 0 0 0 0 0 0 0 0
0 0 0 0 0 0 0 0 0 0 0 0 0 0 0 0 0 0 0 0 0 0 0 0 0 0 0 0 0 0 0 0 0 0 0 0 0 0 0 0 0 0 0
0 0 0 0 0 0 0 0 0 0 0 0 0 0 0 0 0 0 0 0 0 0 0 0 0 0 0 0 0 0 0 0 0 0 0 0 0 0 0 0 0 0 0
0 0 0 0 0 0 0 0 0 0 0 0 0 0 0 0 0 0 0 0 0 0 0 0 0 0 0 0 0 0 0 0 0 0 0 0 0 0 0 0 0 0 0
0 0 0 0 0 0 0 0 0 0 0 0 0 0 0 0 0 0 0 0 0 0 0 0 0 0 0 0 0 0 0 0 0 0 0 0 0 0 0 0 0 0 0
0 0 0 0 0 0 0 0 0 0 0 0 0 0 0 0 0 0 0 0 0 0 0 0 0 0 0 0 0 0 0 0 0 0 0 0 0 0 0 0 0 0 0
0 0 0 0 0 0 0 0 0 0 0 0 0 0 0 0 0 0 0 0 0 0 0 0 0 0 0 0 0 0 0 0 0 0 0 0 0 0 0 0 0 0 0
0 0 0 0 0 0 0 0 0 0 0 0 0 0 0 0 0 0 0 0 0 0 0 0 0 0 0 0 0 0 0 0 0 0 0 0 0 0 0 0 0 0 0
Wind_Speed
4 4 4 5 4 5 4 5 5 6 6 7 7 7 7 7 6 5 5 6 6 6 6 6 7 5 5 4 4 4 4 4 6 5 3 3 4 5 4 3 3 3 4
4 4 5 5 5 5 5 6 6 6 6 7 7 7 7 7 6 7 7 7 7 7 7 7 7 6 6 5 5 5 5 5 5 7 5 4 4 5 4 4 4 3 3
4 5 5 5 5 6 6 6 6 6 7 7 7 7 8 8 7 7 7 8 8 7 7 7 7 7 7 6 6 6 5 5 4 5 5 4 3 3 3 3 3 3 3
5 5 6 6 6 6 6 6 6 6 6 7 7 8 8 8 8 8 8 8 8 8 8 8 8 8 8 8 7 7 6 5 5 5 5 4 4 3 3 3 3 3 3
5 5 6 7 6 6 6 6 6 6 7 7 7 8 8 7 7 8 8 9 8 8 8 8 8 9 11 9 8 7 7 6 5 5 5 4 4 3 4 3 4 2 3
5 6 6 6 6 6 6 6 6 7 7 7 7 8 8 7 12 14 11 8 8 8 8 8 8 9 10 12 13 12 10 9 7 6 6 7 7 5 4 4 3 3 4
5 6 6 6 7 6 7 7 7 7 7 7 8 8 8 10 14 15 14 10 8 7 8 7 7 7 9 7 9 12 12 13 13 9 9 9 7 7 6 6 6 5 5
6 6 6 7 7 7 6 7 7 7 7 7 8 8 8 10 14 15 15 9 7 7 7 7 7 7 7 8 7 8 8 9 10 9 8 9 8 7 8 7 6 4 3
6 7 7 7 8 7 7 7 7 7 7 7 7 8 8 10 14 15 15 7 6 7 7 7 7 7 10 12 9 8 8 8 10 12 12 11 11 11 8 5 5 4 5
7 8 7 8 8 7 8 7 6 6 7 8 8 7 8 9 13 15 14 6 6 6 7 7 9 10 11 12 8 7 8 7 6 7 7 8 8 8 10 8 7 6 4
8 8 8 8 8 7 6 6 6 7 7 7 8 8 7 9 12 14 14 7 6 6 6 5 6 10 11 11 10 7 9 8 6 5 5 5 4 5 6 6 6 6 6
7 8 8 8 7 6 6 6 6 6 7 7 7 8 6 7 10 12 14 13 11 7 6 5 6 10 10 10 8 8 10 8 4 4 4 4 4 4 4 4 5 4 5
7 8 8 8 7 7 6 6 6 5 5 6 6 6 7 6 7 13 14 14 14 8 6 9 10 10 9 7 8 9 7 4 4 4 5 4 4 4 3 3 3 2 3
8 8 7 7 7 6 5 5 5 5 5 6 6 6 7 6 6 6 6 7 10 8 6 7 9 8 7 7 7 5 4 4 4 4 4 3 3 3 3 3 3 3 2
7 7 7 7 7 6 5 5 6 5 6 7 6 6 7 7 9 13 9 6 6 6 6 3 3 3 3 3 3 3 3 3 4 3 3 3 3 3 3 3 3 2 3
7 7 6 6 6 6 6 6 9 9 13 13 13 11 9 11 15 15 14 13 13 11 6 3 3 3 4 4 4 3 3 3 3 3 3 3 3 3 3 2 2 3 3
6 7 6 6 6 6 6 6 7 9 11 12 13 14 13 14 15 14 14 12 11 9 4 4 4 4 4 4 4 4 4 4 3 3 3 3 3 3 3 3 3 2 2
6 8 7 5 6 6 6 6 6 7 8 7 10 13 14 14 14 13 12 9 6 5 4 4 4 4 5 4 4 4 4 4 3 3 3 3 3 3 3 3 3 3 3
6 5 5 5 6 6 6 6 6 7 7 7 7 9 12 13 13 11 10 5 4 4 4 4 5 5 5 5 4 4 4 4 4 3 3 3 3 3 3 3 3 4 3
5 10 9 6 5 6 6 6 6 6 6 6 7 7 7 7 6 6 5 4 4 4 4 5 5 5 5 5 4 4 4 4 3 3 3 3 2 2 3 3 3 4 3
5 7 10 7 6 6 6 6 6 6 6 6 6 9 12 7 5 6 5 5 4 5 5 5 5 5 5 4 4 4 4 4 3 3 3 2 2 2 2 2 3 3 3
5 5 5 5 6 6 6 5 5 6 6 7 7 8 13 7 5 5 5 5 5 5 5 5 5 5 5 4 4 4 4 4 3 3 2 2 2 2 2 2 2 2 3
5 6 6 6 5 8 8 5 5 6 6 6 7 7 7 6 6 6 6 6 6 5 5 4 5 5 5 4 4 4 4 4 4 3 3 2 2 2 2 2 2 3 3
5 5 6 6 5 5 6 6 6 6 6 6 6 6 6 6 6 7 6 6 6 5 5 5 5 6 7 5 4 4 4 4 4 3 3 3 3 2 2 2 2 3 3
4 5 5 5 5 6 6 6 6 6 6 7 6 6 6 6 6 6 6 6 6 6 6 6 5 6 7 7 6 5 7 8 6 3 2 2 3 3 2 3 3 3 3
4 5 5 5 5 5 6 6 6 6 6 6 6 6 6 6 6 6 6 6 6 6 6 6 6 7 8 7 7 7 8 8 7 5 3 2 2 2 2 2 3 3 3
Wind_Direction
305 306 306 303 302 299 294 295 296 297 300 301 303 303 302 296 291 287 284 287 276 273 268 257 252 250 247 246 245 245 251 253 263 276 276 278 265 267 269 258 259 255 257
295 301 301 300 298 298 295 295 296 296 297 297 299 298 298 295 287 282 281 284 272 269 269 264 261 255 248 245 242 243 245 249 252 269 277 269 259 255 254 249 259 258 251
295 299 300 299 296 296 294 292 295 296 298 299 299 296 296 293 286 281 277 275 268 262 262 260 261 256 251 246 242 242 244 253 252 253 266 270 266 258 259 260 253 253 253
299 298 297 295 291 289 291 293 295 295 297 298 298 296 295 290 285 281 278 276 269 264 260 258 255 248 250 247 244 240 240 243 248 248 257 262 264 256 239 238 248 242 247
299 297 294 293 289 290 293 294 295 294 296 295 297 297 296 292 285 284 281 279 271 270 266 261 256 254 255 255 252 237 231 235 240 246 254 258 254 243 236 235 241 244 251
296 295 298 298 294 292 295 296 297 295 295 296 296 296 296 297 302 298 293 285 279 275 274 270 263 261 259 263 263 257 246 236 233 238 245 246 245 240 240 239 239 234 251
297 300 302 302 298 292 295 299 297 296 295 295 296 295 294 297 303 303 299 295 281 276 274 271 272 268 268 256 262 261 257 253 247 240 238 241 242 234 227 235 235 238 243
301 302 303 303 301 296 293 293 292 293 292 291 295 294 294 298 305 305 305 299 285 281 276 273 268 265 259 257 253 252 249 249 247 241 236 238 240 232 226 232 236 252 267
305 304 302 299 297 296 292 289 289 291 291 291 293 294 294 298 303 305 305 295 287 284 282 278 269 264 265 266 258 253 254 255 261 256 251 250 248 245 237 223 220 225 246
303 301 302 299 293 287 286 286 287 287 288 294 296 294 291 293 299 303 304 292 290 289 286 279 275 273 273 271 259 250 250 251 252 257 255 254 247 240 239 226 214 219 232
306 307 306 302 295 283 281 284 287 289 291 291 293 294 291 292 299 302 304 298 290 289 288 283 278 281 278 275 273 259 257 259 249 248 250 248 245 235 229 226 217 216 223
313 311 309 307 305 302 290 290 290 290 293 293 295 296 294 295 299 301 303 304 302 291 288 284 281 284 283 279 276 268 266 266 252 244 244 243 243 241 234 226 227 232 237
316 311 310 312 311 309 302 300 299 292 290 294 294 296 301 301 299 302 303 307 307 302 293 291 292 290 288 283 282 282 275 261 246 244 243 245 240 238 234 223 222 227 245
313 311 313 314 313 310 307 303 300 297 296 298 298 300 301 302 300 298 298 302 305 303 299 295 295 292 290 288 284 284 274 256 249 247 248 249 248 235 229 224 224 213 225
311 311 314 314 311 310 306 299 298 289 294 299 296 296 299 300 303 306 306 303 302 298 303 301 301 298 293 290 287 283 283 277 264 256 248 247 247 245 241 228 228 225 223
313 316 315 314 312 311 309 310 310 308 309 309 309 305 302 306 313 314 315 316 317 318 316 307 302 297 291 293 290 288 285 278 273 265 252 243 243 240 242 236 222 211 209
307 311 311 314 315 314 313 314 315 318 317 317 318 318 317 317 320 321 322 323 326 327 318 304 297 293 289 284 283 282 279 277 272 266 256 245 240 238 231 222 214 206 206
308 308 312 309 310 310 310 310 310 312 316 317 320 322 323 322 323 325 328 331 329 331 317 306 301 297 292 285 281 281 282 285 278 267 259 245 231 226 225 218 209 201 200
310 308 306 305 306 307 307 309 309 309 310 312 316 321 325 323 325 328 332 330 318 314 312 306 301 298 295 293 288 281 278 278 281 275 266 251 234 225 223 216 209 208 200
305 310 315 311 309 311 312 312 311 311 312 315 318 321 323 323 325 326 329 323 313 306 303 301 299 295 293 289 289 290 289 286 284 278 273 265 251 236 228 218 207 198 194
301 305 313 315 309 309 310 310 310 310 312 313 314 317 321 323 321 317 317 315 309 304 301 299 296 295 291 289 289 290 291 290 284 277 278 276 264 252 243 224 208 197 187
299 300 304 307 309 310 308 308 310 311 313 313 314 318 325 326 318 313 312 312 310 304 300 298 296 294 292 287 287 287 286 286 287 284 279 276 267 251 239 217 200 193 182
303 305 307 307 307 309 314 313 311 310 311 311 312 315 319 319 317 314 311 311 311 309 307 302 299 299 299 297 288 277 275 274 274 268 269 267 267 256 228 205 199 195 190
306 306 307 308 309 309 310 311 310 309 310 310 311 311 311 311 310 311 312 310 309 308 307 304 300 299 298 299 298 292 285 287 284 264 255 251 255 253 230 208 204 202 192
315 313 311 308 308 308 308 308 308 309 309 309 308 308 309 309 308 308 309 308 308 307 309 307 303 301 300 299 297 292 293 299 299 290 256 242 242 240 226 216 206 198 192
314 311 307 305 304 305 305 306 308 310 309 308 307 307 307 306 305 305 307 307 309 309 308 307 307 305 302 299 294 293 298 301 299 295 276 233 223 225 217 209 197 189 182